Time,TemperatureF,DewpointF,PressureIn,WindDirection,WindDirectionDegrees,WindSpeedMPH,WindSpeedGustMPH,Humidity,HourlyPrecipIn,Conditions,Clouds,dailyrainin,SoftwareType,DateUTC
2014-01-25 00:13:00,16.0,-1.1,30.17,SSW,202,2.2,-999.0,46,-99.99,,,0.00,Acu-Link.com,2014-01-25 05:13:00,
2014-01-25 00:28:00,16.3,-0.4,30.16,South,180,4.7,-999.0,47,-99.99,,,0.00,Acu-Link.com,2014-01-25 05:28:00,
2014-01-25 00:44:00,16.7,-1.9,30.14,WSW,247,2.7,-999.0,43,-99.99,,,0.00,Acu-Link.com,2014-01-25 05:44:00,
2014-01-25 00:59:00,17.2,-1.9,30.13,South,180,2.7,-999.0,42,-99.99,,,0.00,Acu-Link.com,2014-01-25 05:59:00,
2014-01-25 01:14:00,16.9,-1.7,30.12,SSW,202,1.7,-999.0,43,-99.99,,,0.00,Acu-Link.com,2014-01-25 06:14:00,
2014-01-25 01:29:00,16.7,-1.9,30.11,South,180,3.2,-999.0,43,-99.99,,,0.00,Acu-Link.com,2014-01-25 06:29:00,
2014-01-25 01:45:00,16.3,-0.8,30.10,SSE,157,1.7,-999.0,46,-99.99,,,0.00,Acu-Link.com,2014-01-25 06:45:00,
2014-01-25 02:00:00,16.3,-0.8,30.10,SSW,202,2.2,-999.0,46,-99.99,,,0.00,Acu-Link.com,2014-01-25 07:00:00,
2014-01-25 02:15:00,16.0,-0.2,30.08,SSW,202,1.1,-999.0,48,-99.99,,,0.00,Acu-Link.com,2014-01-25 07:15:00,
2014-01-25 02:30:00,16.0,-0.6,30.08,SSW,202,2.2,-999.0,47,-99.99,,,0.00,Acu-Link.com,2014-01-25 07:30:00,
2014-01-25 02:45:00,16.0,0.3,30.07,SSW,202,2.2,-999.0,49,-99.99,,,0.00,Acu-Link.com,2014-01-25 07:45:00,
2014-01-25 03:00:00,15.8,0.1,30.07,SSW,202,2.2,-999.0,49,-99.99,,,0.00,Acu-Link.com,2014-01-25 08:00:00,
2014-01-25 03:15:00,15.8,-0.4,30.05,South,180,2.7,-999.0,48,-99.99,,,0.00,Acu-Link.com,2014-01-25 08:15:00,
2014-01-25 03:31:00,15.4,-0.3,30.04,SSW,202,1.7,-999.0,49,-99.99,,,0.00,Acu-Link.com,2014-01-25 08:31:00,
2014-01-25 03:46:00,15.3,0.5,30.03,West,270,1.7,-999.0,51,-99.99,,,0.00,Acu-Link.com,2014-01-25 08:46:00,
2014-01-25 04:01:00,15.3,0.5,30.01,SSE,157,4.2,-999.0,51,-99.99,,,0.00,Acu-Link.com,2014-01-25 09:01:00,
2014-01-25 04:17:00,16.0,1.1,29.99,SSW,202,2.2,-999.0,51,-99.99,,,0.00,Acu-Link.com,2014-01-25 09:17:00,
2014-01-25 04:32:00,16.5,1.1,29.98,SSW,202,2.7,-999.0,50,-99.99,,,0.00,Acu-Link.com,2014-01-25 09:32:00,
2014-01-25 04:47:00,17.1,1.7,29.98,SSW,202,2.7,-999.0,50,-99.99,,,0.00,Acu-Link.com,2014-01-25 09:47:00,
2014-01-25 05:02:00,17.4,2.0,29.97,South,180,2.2,-999.0,50,-99.99,,,0.00,Acu-Link.com,2014-01-25 10:02:00,
2014-01-25 05:17:00,17.8,2.3,29.97,SW,225,2.2,-999.0,50,-99.99,,,0.00,Acu-Link.com,2014-01-25 10:17:00,
2014-01-25 05:32:00,18.3,2.8,29.96,SSE,157,3.7,-999.0,50,-99.99,,,0.00,Acu-Link.com,2014-01-25 10:32:00,
2014-01-25 05:48:00,18.5,2.1,29.95,South,180,3.7,-999.0,48,-99.99,,,0.00,Acu-Link.com,2014-01-25 10:48:00,
2014-01-25 06:03:00,18.7,2.7,29.93,SW,225,0.0,-999.0,49,-99.99,,,0.00,Acu-Link.com,2014-01-25 11:03:00,
2014-01-25 06:18:00,18.9,2.5,29.91,SSW,202,4.7,-999.0,48,-99.99,,,0.00,Acu-Link.com,2014-01-25 11:18:00,
2014-01-25 06:33:00,19.0,2.6,29.90,WSW,247,1.7,-999.0,48,-99.99,,,0.00,Acu-Link.com,2014-01-25 11:33:00,
2014-01-25 06:49:00,19.6,3.1,29.88,South,180,3.2,-999.0,48,-99.99,,,0.00,Acu-Link.com,2014-01-25 11:49:00,
2014-01-25 07:04:00,19.9,3.4,29.87,NNE,22,1.7,-999.0,48,-99.99,,,0.00,Acu-Link.com,2014-01-25 12:04:00,
2014-01-25 07:19:00,20.5,4.0,29.88,SSW,202,2.7,-999.0,48,-99.99,,,0.00,Acu-Link.com,2014-01-25 12:19:00,
2014-01-25 07:34:00,21.0,4.0,29.89,SE,135,2.7,-999.0,47,-99.99,,,0.00,Acu-Link.com,2014-01-25 12:34:00,
2014-01-25 07:49:00,21.9,4.3,29.88,SSE,157,3.2,-999.0,46,-99.99,,,0.00,Acu-Link.com,2014-01-25 12:49:00,
2014-01-25 08:05:00,23.2,4.1,29.88,SSW,202,2.7,-999.0,43,-99.99,,,0.00,Acu-Link.com,2014-01-25 13:05:00,
2014-01-25 08:20:00,23.9,3.7,29.86,SW,225,4.2,-999.0,41,-99.99,,,0.00,Acu-Link.com,2014-01-25 13:20:00,
2014-01-25 08:35:00,24.3,2.9,29.86,South,180,2.7,-999.0,39,-99.99,,,0.00,Acu-Link.com,2014-01-25 13:35:00,
2014-01-25 08:51:00,25.0,4.1,29.84,West,270,4.7,-999.0,40,-99.99,,,0.00,Acu-Link.com,2014-01-25 13:51:00,
2014-01-25 09:06:00,25.3,4.4,29.84,SSE,157,3.2,-999.0,40,-99.99,,,0.00,Acu-Link.com,2014-01-25 14:06:00,
2014-01-25 09:22:00,26.1,4.0,29.82,NW,315,2.2,-999.0,38,-99.99,,,0.00,Acu-Link.com,2014-01-25 14:22:00,
2014-01-25 09:37:00,27.5,4.7,29.82,SSE,157,2.2,-999.0,37,-99.99,,,0.00,Acu-Link.com,2014-01-25 14:37:00,
2014-01-25 09:52:00,28.4,4.9,29.81,South,180,2.2,-999.0,36,-99.99,,,0.00,Acu-Link.com,2014-01-25 14:52:00,
2014-01-25 10:07:00,29.5,5.3,29.79,South,180,3.7,-999.0,35,-99.99,,,0.00,Acu-Link.com,2014-01-25 15:07:00,
2014-01-25 10:22:00,30.6,5.0,29.79,SSW,202,6.3,-999.0,33,-99.99,,,0.00,Acu-Link.com,2014-01-25 15:22:00,
2014-01-25 10:38:00,32.0,4.8,29.79,SW,225,5.3,-999.0,31,-99.99,,,0.00,Acu-Link.com,2014-01-25 15:38:00,
2014-01-25 10:53:00,32.5,3.8,29.78,SSW,202,3.2,-999.0,29,-99.99,,,0.00,Acu-Link.com,2014-01-25 15:53:00,
2014-01-25 11:08:00,33.4,4.6,29.75,South,180,4.7,-999.0,29,-99.99,,,0.00,Acu-Link.com,2014-01-25 16:08:00,
2014-01-25 11:23:00,32.7,4.0,29.74,ESE,112,2.7,-999.0,29,-99.99,,,0.00,Acu-Link.com,2014-01-25 16:23:00,
2014-01-25 11:39:00,32.7,4.0,29.72,West,270,4.7,-999.0,29,-99.99,,,0.00,Acu-Link.com,2014-01-25 16:39:00,
2014-01-25 11:54:00,34.5,5.6,29.72,SSE,157,7.3,-999.0,29,-99.99,,,0.00,Acu-Link.com,2014-01-25 16:54:00,
2014-01-25 12:10:00,34.7,5.0,29.71,WNW,292,2.2,-999.0,28,-99.99,,,0.00,Acu-Link.com,2014-01-25 17:10:00,
2014-01-25 12:25:00,34.0,5.1,29.70,WSW,247,9.9,-999.0,29,-99.99,,,0.00,Acu-Link.com,2014-01-25 17:25:00,
2014-01-25 12:40:00,33.6,6.2,29.69,SSW,202,4.7,-999.0,31,-99.99,,,0.00,Acu-Link.com,2014-01-25 17:40:00,
2014-01-25 12:55:00,34.5,7.0,29.68,South,180,8.3,-999.0,31,-99.99,,,0.00,Acu-Link.com,2014-01-25 17:55:00,
2014-01-25 13:10:00,35.8,7.4,29.66,SSE,157,2.2,-999.0,30,-99.99,,,0.00,Acu-Link.com,2014-01-25 18:10:00,
2014-01-25 13:25:00,36.1,7.7,29.65,SW,225,6.3,-999.0,30,-99.99,,,0.00,Acu-Link.com,2014-01-25 18:25:00,
2014-01-25 13:41:00,36.7,8.2,29.65,SSE,157,1.7,-999.0,30,-99.99,,,0.00,Acu-Link.com,2014-01-25 18:41:00,
2014-01-25 13:56:00,36.1,8.4,29.64,South,180,5.3,-999.0,31,-99.99,,,0.00,Acu-Link.com,2014-01-25 18:56:00,
2014-01-25 14:11:00,37.2,9.4,29.64,South,180,3.2,-999.0,31,-99.99,,,0.00,Acu-Link.com,2014-01-25 19:11:00,
2014-01-25 14:27:00,38.3,9.6,29.63,NW,315,3.7,-999.0,30,-99.99,,,0.00,Acu-Link.com,2014-01-25 19:27:00,
2014-01-25 14:42:00,37.2,8.7,29.64,NNW,337,3.7,-999.0,30,-99.99,,,0.00,Acu-Link.com,2014-01-25 19:42:00,
2014-01-25 14:57:00,37.6,9.7,29.63,South,180,6.3,-999.0,31,-99.99,,,0.00,Acu-Link.com,2014-01-25 19:57:00,
2014-01-25 15:13:00,38.3,11.1,29.64,SW,225,2.7,-999.0,32,-99.99,,,0.00,Acu-Link.com,2014-01-25 20:13:00,
2014-01-25 15:28:00,37.8,11.3,29.64,NNE,22,3.7,-999.0,33,-99.99,,,0.00,Acu-Link.com,2014-01-25 20:28:00,
2014-01-25 15:43:00,37.8,11.3,29.63,SSW,202,3.2,-999.0,33,-99.99,,,0.00,Acu-Link.com,2014-01-25 20:43:00,
2014-01-25 15:59:00,37.9,12.1,29.63,SSW,202,4.7,-999.0,34,-99.99,,,0.00,Acu-Link.com,2014-01-25 20:59:00,
2014-01-25 16:14:00,37.8,12.6,29.65,West,270,2.2,-999.0,35,-99.99,,,0.00,Acu-Link.com,2014-01-25 21:14:00,
2014-01-25 16:30:00,37.4,12.3,29.65,SSE,157,2.2,-999.0,35,-99.99,,,0.00,Acu-Link.com,2014-01-25 21:30:00,
2014-01-25 16:45:00,37.0,12.6,29.66,SSW,202,2.7,-999.0,36,-99.99,,,0.00,Acu-Link.com,2014-01-25 21:45:00,
2014-01-25 17:00:00,37.4,12.9,29.66,WSW,247,1.7,-999.0,36,-99.99,,,0.00,Acu-Link.com,2014-01-25 22:00:00,
2014-01-25 17:15:00,36.9,13.1,29.66,East,90,0.0,-999.0,37,-99.99,,,0.00,Acu-Link.com,2014-01-25 22:15:00,
2014-01-25 17:31:00,35.8,13.3,29.67,WNW,292,3.7,-999.0,39,-99.99,,,0.00,Acu-Link.com,2014-01-25 22:31:00,
2014-01-25 17:46:00,34.7,14.0,29.67,SSE,157,3.2,-999.0,42,-99.99,,,0.00,Acu-Link.com,2014-01-25 22:46:00,
2014-01-25 18:01:00,34.3,14.2,29.68,NW,315,2.2,-999.0,43,-99.99,,,0.00,Acu-Link.com,2014-01-25 23:01:00,
2014-01-25 18:16:00,34.5,14.9,29.69,South,180,1.1,-999.0,44,-99.99,,,0.00,Acu-Link.com,2014-01-25 23:16:00,
2014-01-25 18:32:00,34.3,14.2,29.70,South,180,3.2,-999.0,43,-99.99,,,0.00,Acu-Link.com,2014-01-25 23:32:00,
2014-01-25 18:47:00,34.3,15.2,29.71,SSW,202,1.7,-999.0,45,-99.99,,,0.00,Acu-Link.com,2014-01-25 23:47:00,
2014-01-25 19:02:00,33.8,15.2,29.72,WSW,247,2.2,-999.0,46,-99.99,,,0.00,Acu-Link.com,2014-01-26 00:02:00,
2014-01-25 19:17:00,33.8,16.2,29.73,WSW,247,5.8,-999.0,48,-99.99,,,0.00,Acu-Link.com,2014-01-26 00:17:00,
2014-01-25 19:33:00,34.2,17.1,29.72,NW,315,2.7,-999.0,49,-99.99,,,0.00,Acu-Link.com,2014-01-26 00:33:00,
2014-01-25 19:48:00,33.1,17.0,29.73,South,180,2.2,-999.0,51,-99.99,,,0.00,Acu-Link.com,2014-01-26 00:48:00,
2014-01-25 20:03:00,32.2,16.6,29.73,SSE,157,3.2,-999.0,52,-99.99,,,0.00,Acu-Link.com,2014-01-26 01:03:00,
2014-01-25 20:19:00,32.2,17.0,29.73,South,180,0.0,-999.0,53,-99.99,,,0.00,Acu-Link.com,2014-01-26 01:19:00,
2014-01-25 20:34:00,31.1,17.3,29.72,SSE,157,0.0,-999.0,56,-99.99,,,0.00,Acu-Link.com,2014-01-26 01:34:00,
2014-01-25 20:49:00,31.3,17.0,29.72,SSW,202,0.0,-999.0,55,-99.99,,,0.00,Acu-Link.com,2014-01-26 01:49:00,
2014-01-25 21:05:00,30.6,17.2,29.72,SSE,157,0.0,-999.0,57,-99.99,,,0.00,Acu-Link.com,2014-01-26 02:05:00,
2014-01-25 21:20:00,30.7,16.0,29.72,SSW,202,1.7,-999.0,54,-99.99,,,0.00,Acu-Link.com,2014-01-26 02:20:00,
2014-01-25 21:35:00,30.6,16.0,29.72,SE,135,0.0,-999.0,54,-99.99,,,0.00,Acu-Link.com,2014-01-26 02:35:00,
2014-01-25 21:50:00,29.8,15.6,29.73,SE,135,0.0,-999.0,55,-99.99,,,0.00,Acu-Link.com,2014-01-26 02:50:00,
2014-01-25 22:05:00,30.0,15.8,29.73,SSE,157,3.2,-999.0,55,-99.99,,,0.00,Acu-Link.com,2014-01-26 03:05:00,
2014-01-25 22:20:00,29.7,16.4,29.74,North,0,0.0,-999.0,57,-99.99,,,0.00,Acu-Link.com,2014-01-26 03:20:00,
2014-01-25 22:36:00,29.3,16.4,29.75,WNW,292,0.0,-999.0,58,-99.99,,,0.00,Acu-Link.com,2014-01-26 03:36:00,
2014-01-25 22:51:00,28.2,16.5,29.76,SSW,202,0.0,-999.0,61,-99.99,,,0.00,Acu-Link.com,2014-01-26 03:51:00,
2014-01-25 23:06:00,27.9,17.0,29.76,SE,135,0.0,-999.0,63,-99.99,,,0.00,Acu-Link.com,2014-01-26 04:06:00,
2014-01-25 23:21:00,28.0,16.7,29.78,SE,135,0.0,-999.0,62,-99.99,,,0.00,Acu-Link.com,2014-01-26 04:21:00,
2014-01-25 23:37:00,27.7,16.8,29.78,SSE,157,0.0,-999.0,63,-99.99,,,0.00,Acu-Link.com,2014-01-26 04:37:00,
2014-01-25 23:52:00,27.9,17.0,29.78,South,180,0.0,-999.0,63,-99.99,,,0.00,Acu-Link.com,2014-01-26 04:52:00,